Home   Weather   Sheffield   Past weeks

Flag for United Kingdom Past Weather in Sheffield, England, United Kingdom — July 2017

Now
66 °F

Mild.


Feels Like: 66 °F
Forecast: 51 / 62 °F
Wind: 8 mph from South

Location: Manchester Airport

Current Time: Apr 21, 2018 at 12:40:49 pm

Latest Report: Apr 21, 2018 at 11:50 am


Visibility: N/A

Pressure: 30.12 "Hg

Humidity: 56%

Dew Point: 50 °F

Location of SheffieldLocation

July 2017 Weather in Sheffield — Graph

°F

High & Low Weather Summary for July 2017

 TemperatureHumidityPressure
High81 °F (Jul 6, 2:50 pm)100% (Jul 1, 10:50 pm)30.27 "Hg (Jul 1, 10:50 pm)
Low48 °F (Jul 17, 2:20 am)33% (Jul 17, 5:50 pm)29.53 "Hg (Jul 26, 2:20 pm)
Average61 °F76%29.91 "Hg
* Reported Jul 1 12:20 am — Jul 31 11:50 pm, Sheffield. Weather by CustomWeather, © 2018

Note: Actual official high and low records may vary slightly from our data, if they occured in-between our weather recording intervals... More about our weather records

Advertising

Sheffield Weather History for July 1, 2017

Scroll right to see more
 ConditionsComfort  
Time TempWeatherWind HumidityBarometerVisibility
12:20 am
Sat, Jul 1
59 °FOvercast.8 mph77%29.92 "HgN/A
12:50 am59 °FMostly cloudy.8 mph77%29.95 "HgN/A
1:20 am57 °FMostly cloudy.7 mph77%29.95 "HgN/A
1:50 am57 °FOvercast.3 mph82%29.95 "HgN/A
2:20 am57 °FOvercast.5 mph82%29.95 "HgN/A
2:50 am57 °FOvercast.6 mph77%29.95 "HgN/A
3:20 am57 °FPassing clouds.5 mph77%29.95 "HgN/A
3:50 am57 °FPassing clouds.3 mph77%29.95 "HgN/A
4:20 am57 °FPassing clouds.3 mph77%29.98 "HgN/A
4:50 am57 °FCool.3 mph77%29.98 "HgN/A
5:20 am57 °FCool.2 mph82%29.98 "HgN/A
5:50 am57 °FScattered clouds.2 mph82%29.98 "HgN/A
6:20 am57 °FMore clouds than sun.5 mph88%29.98 "HgN/A
6:50 am57 °FScattered showers. Partly sunny.5 mph88%29.98 "HgN/A
7:20 am57 °FDrizzle. Broken clouds.7 mph88%30.01 "HgN/A
7:50 am57 °FDrizzle. Partly sunny.6 mph94%30.01 "Hg4 mi
8:20 am57 °FDrizzle. Partly sunny.12 mph88%30.01 "Hg4 mi
8:50 am57 °FScattered showers. Partly sunny.10 mph88%30.01 "Hg6 mi
9:20 am57 °FMostly cloudy.12 mph82%30.04 "HgN/A
9:50 am57 °FPartly sunny.12 mph82%30.04 "HgN/A
10:20 am57 °FOvercast.10 mph77%30.04 "HgN/A
10:50 am57 °FOvercast.9 mph77%30.04 "HgN/A
11:20 am59 °FOvercast.9 mph77%30.04 "HgN/A
11:50 am61 °FMostly cloudy.8 mph72%30.04 "HgN/A
12:20 pm63 °FPartly sunny.10 mph68%30.04 "HgN/A
12:50 pm64 °FScattered clouds.12 mph56%30.01 "HgN/A
1:20 pm64 °FMild.12 mph60%30.01 "HgN/A
1:50 pm64 °FPassing clouds.13 mph60%30.01 "HgN/A
2:20 pm66 °FMild.12 mph60%30.01 "HgN/A
2:50 pm66 °FScattered clouds.9 mph60%30.01 "HgN/A
3:20 pm68 °FScattered clouds.13 mph56%30.01 "HgN/A
3:50 pm68 °FPassing clouds.13 mph56%30.01 "HgN/A
4:20 pm66 °FMild.13 mph60%29.98 "HgN/A
4:50 pm66 °FMild.13 mph60%29.98 "HgN/A
5:20 pm64 °FOvercast.12 mph64%29.98 "HgN/A
5:50 pm64 °FPartly sunny.13 mph64%30.01 "HgN/A
6:20 pm63 °FOvercast.10 mph68%30.01 "HgN/A
6:50 pm63 °FMostly cloudy.9 mph68%30.01 "HgN/A
7:20 pm61 °FOvercast.7 mph77%30.01 "HgN/A
7:50 pm59 °FLight rain. More clouds than sun.6 mph82%30.01 "HgN/A
8:20 pm59 °FLight rain. Mostly cloudy.8 mph88%30.01 "HgN/A
8:50 pm59 °FLight rain. Overcast.8 mph82%30.01 "HgN/A
9:20 pm59 °FOvercast.6 mph82%30.01 "HgN/A
9:50 pm59 °FLight rain. Overcast.7 mph88%30.01 "Hg3 mi
10:20 pm57 °FDrizzle. Mostly cloudy.8 mph94%30.01 "Hg3 mi
10:50 pm57 °FLight rain. Mostly cloudy.9 mph100%30.01 "Hg2 mi
11:20 pm57 °FLight rain. Mostly cloudy.15 mph94%30.04 "Hg1 mi
11:50 pm57 °FPassing clouds.8 mph82%30.04 "HgN/A
Weather by CustomWeather, © 2018

See weather overview